Location: Unspecified
(50.7693°N, 0.0000°E)
Time: 00:33:48
(UTC+00:00)

Vanguard 1 - Visible Passes

Search period start: 16 June 2019 00:00
Search period end: 26 June 2019 00:00
Orbit: 654 x 3830 km, 34.2° (Epoch: 14 June)

Date Brightness Start Highest point End Pass type
(mag) Time Alt. Az. Time Alt. Az. Time Alt. Az.
17 Jun 13.2 01:54:52 10° S 01:59:49 12° SSE 02:04:01 10° SE visible
18 Jun 13.0 02:12:10 10° S 02:20:42 17° SSE 02:27:08 10° ESE visible
19 Jun 12.8 02:30:58 10° SSW 02:41:35 21° SSE 02:49:02 10° ESE visible
20 Jun 13.4 00:36:14 11° SSE 00:40:55 12° SE 00:45:45 10° SE visible
20 Jun 12.7 02:50:30 10° SSW 03:02:29 25° SSE 03:10:27 10° ESE visible
21 Jun 13.2 00:55:08 13° S 01:01:45 17° SSE 01:09:31 10° ESE visible
22 Jun 13.1 01:13:54 15° S 01:22:37 22° SSE 01:31:44 10° ESE visible
22 Jun 13.6 23:19:55 11° SE 23:21:35 11° SE 23:25:14 10° SE visible
23 Jun 12.9 01:32:31 15° SSW 01:43:30 26° SSE 01:53:20 10° ESE visible
23 Jun 13.4 23:38:22 15° SSE 23:42:19 16° SE 23:50:48 10° ESE visible
24 Jun 12.7 01:50:57 13° SSW 02:04:24 30° SSE 02:14:38 10° ESE visible
24 Jun 13.3 23:56:33 18° S 00:03:05 21° SSE 00:13:35 10° ESE visible
25 Jun 12.6 02:09:06 10° SW 02:25:18 34° SSE 02:35:41 10° ESE visible
